When you browse on this site, cookies collect data to enhance your experience and personalize the content and advertising you see.
Visit our Privacy Policy to learn more. By continuing to use the site, you agree to this use of cookies and data.
  • In Spain
  • List of Countries
  • For 7 days
  • Water Temperature
  • Satellite Maps
  • Weather Map
  • Weather Widgets
  • user-avatar
    Login

    Hourly Weather Mundu

    Today, 21 April, Sunday

    Time Temperature Precipitation Wind Pressure Humidity
    00:00 +36°C° 0 mm 3 mps 721 mmHg 38%
    01:00 +35°C° 0 mm 2 mps 721 mmHg 41%
    02:00 +34°C° 0 mm 3 mps 721 mmHg 43%
    03:00 +34°C° 0 mm 3 mps 721 mmHg 45%
    04:00 +33°C° 0 mm 3 mps 721 mmHg 47%
    05:00 +32°C° 0 mm 2 mps 721 mmHg 47%
    06:00 +34°C° 0 mm 2 mps 722 mmHg 47%
    07:00 +34°C° 0 mm 2 mps 722 mmHg 47%
    08:00 +36°C° 0.1 mm 2 mps 722 mmHg 41%
    09:00 +38°C° 0.1 mm 2 mps 722 mmHg 35%
    10:00 +40°C° 0.1 mm 2 mps 723 mmHg 28%
    11:00 +43°C° 0 mm 1 mps 722 mmHg 24%
    12:00 +46°C° 0 mm 1 mps 722 mmHg 20%
    13:00 +45°C° 0 mm 0 mps 721 mmHg 16%
    14:00 +43°C° 0 mm 0 mps 721 mmHg 17%
    15:00 +44°C° 0 mm 1 mps 720 mmHg 19%
    16:00 +42°C° 0 mm 1 mps 719 mmHg 20%
    17:00 +41°C° 0 mm 1 mps 719 mmHg 21%
    18:00 +41°C° 0 mm 1 mps 720 mmHg 22%
    19:00 +40°C° 0 mm 1 mps 720 mmHg 23%
    20:00 +39°C° 0 mm 1 mps 720 mmHg 25%
    21:00 +37°C° 0 mm 1 mps 720 mmHg 26%
    22:00 +37°C° 0 mm 1 mps 721 mmHg 27%
    23:00 +36°C° 0 mm 1 mps 720 mmHg 28%

    Tomorrow, 22 April, Monday

    Time Temperature Precipitation Wind Pressure Humidity
    00:00 +35°C° 0 mm 1 mps 720 mmHg 29%
    01:00 +35°C° 0 mm 1 mps 720 mmHg 30%
    02:00 +34°C° 0 mm 1 mps 720 mmHg 32%
    03:00 +34°C° 0 mm 1 mps 719 mmHg 34%
    04:00 +33°C° 0 mm 1 mps 719 mmHg 35%
    05:00 +33°C° 0 mm 1 mps 720 mmHg 36%
    06:00 +33°C° 0 mm 1 mps 720 mmHg 36%
    07:00 +34°C° 0 mm 2 mps 721 mmHg 37%
    08:00 +37°C° 0 mm 1 mps 721 mmHg 32%
    09:00 +41°C° 0 mm 1 mps 722 mmHg 26%
    10:00 +41°C° 0 mm 0 mps 722 mmHg 21%
    11:00 +44°C° 0 mm 1 mps 722 mmHg 19%
    12:00 +45°C° 0 mm 2 mps 721 mmHg 18%
    13:00 +46°C° 0 mm 3 mps 720 mmHg 16%
    14:00 +46°C° 0 mm 3 mps 720 mmHg 15%
    15:00 +46°C° 0 mm 2 mps 719 mmHg 14%
    16:00 +46°C° 0 mm 2 mps 719 mmHg 13%
    17:00 +43°C° 0 mm 2 mps 719 mmHg 14%
    18:00 +42°C° 0 mm 1 mps 719 mmHg 15%
    19:00 +40°C° 0 mm 1 mps 720 mmHg 15%
    20:00 +39°C° 0 mm 1 mps 720 mmHg 17%
    21:00 +37°C° 0 mm 1 mps 720 mmHg 19%
    22:00 +36°C° 0 mm 1 mps 721 mmHg 21%
    23:00 +36°C° 0 mm 1 mps 720 mmHg 24%

    Day after tomorrow, 23 April, Tuesday

    Time Temperature Precipitation Wind Pressure Humidity
    00:00 +35°C° 0 mm 1 mps 720 mmHg 26%
    01:00 +35°C° 0 mm 2 mps 720 mmHg 29%
    02:00 +35°C° 0 mm 2 mps 719 mmHg 31%
    03:00 +34°C° 0 mm 2 mps 719 mmHg 34%
    04:00 +32°C° 0 mm 2 mps 719 mmHg 36%
    05:00 +34°C° 0 mm 2 mps 720 mmHg 38%
    06:00 +34°C° 0 mm 2 mps 720 mmHg 41%
    07:00 +34°C° 0 mm 3 mps 721 mmHg 43%
    08:00 +37°C° 0 mm 2 mps 721 mmHg 37%
    09:00 +40°C° 0 mm 2 mps 722 mmHg 31%
    10:00 +43°C° 0 mm 1 mps 722 mmHg 24%
    11:00 +44°C° 0 mm 1 mps 722 mmHg 21%
    12:00 +46°C° 0 mm 2 mps 721 mmHg 17%
    13:00 +47°C° 0 mm 2 mps 720 mmHg 13%
    14:00 +46°C° 0 mm 2 mps 720 mmHg 14%
    15:00 +46°C° 0 mm 3 mps 719 mmHg 14%
    16:00 +46°C° 0 mm 3 mps 719 mmHg 14%
    17:00 +45°C° 0 mm 2 mps 719 mmHg 16%
    18:00 +42°C° 0 mm 2 mps 719 mmHg 18%
    19:00 +41°C° 0 mm 2 mps 720 mmHg 20%
    20:00 +40°C° 0 mm 2 mps 720 mmHg 21%
    21:00 +39°C° 0 mm 2 mps 721 mmHg 23%
    22:00 +39°C° 0 mm 2 mps 721 mmHg 24%
    23:00 +38°C° 0 mm 2 mps 721 mmHg 27%

    24 April, Wednesday

    Time Temperature Precipitation Wind Pressure Humidity
    00:00 +37°C° 0 mm 2 mps 720 mmHg 30%
    01:00 +36°C° 0 mm 2 mps 720 mmHg 33%
    02:00 +36°C° 0 mm 2 mps 720 mmHg 35%
    03:00 +34°C° 0 mm 1 mps 720 mmHg 37%
    04:00 +33°C° 0 mm 1 mps 720 mmHg 39%
    05:00 +34°C° 0 mm 2 mps 720 mmHg 41%
    06:00 +34°C° 0 mm 2 mps 721 mmHg 43%
    07:00 +35°C° 0 mm 3 mps 722 mmHg 45%
    08:00 +37°C° 0 mm 3 mps 722 mmHg 39%
    09:00 +39°C° 0 mm 2 mps 723 mmHg 32%
    10:00 +42°C° 0 mm 2 mps 723 mmHg 25%
    11:00 +45°C° 0 mm 2 mps 722 mmHg 21%
    12:00 +46°C° 0 mm 2 mps 722 mmHg 17%
    13:00 +48°C° 0 mm 2 mps 721 mmHg 13%
    14:00 +47°C° 0 mm 2 mps 720 mmHg 12%
    15:00 +47°C° 0 mm 2 mps 720 mmHg 12%
    16:00 +46°C° 0 mm 2 mps 719 mmHg 12%
    17:00 +45°C° 0 mm 2 mps 720 mmHg 13%
    18:00 +43°C° 0 mm 2 mps 720 mmHg 13%
    19:00 +41°C° 0 mm 1 mps 721 mmHg 14%
    20:00 +40°C° 0 mm 1 mps 721 mmHg 15%
    21:00 +40°C° 0 mm 1 mps 721 mmHg 16%
    22:00 +36°C° 0 mm 0 mps 722 mmHg 17%
    23:00 +37°C° 0 mm 1 mps 721 mmHg 19%

    25 April, Thursday

    Time Temperature Precipitation Wind Pressure Humidity
    00:00 +36°C° 0 mm 1 mps 721 mmHg 21%
    01:00 +36°C° 0 mm 2 mps 720 mmHg 24%
    02:00 +34°C° 0 mm 1 mps 720 mmHg 25%
    03:00 +34°C° 0 mm 1 mps 720 mmHg 27%
    04:00 +33°C° 0 mm 1 mps 720 mmHg 29%
    05:00 +33°C° 0 mm 1 mps 721 mmHg 30%
    06:00 +34°C° 0 mm 1 mps 722 mmHg 31%
    07:00 +34°C° 0 mm 1 mps 722 mmHg 32%
    08:00 +37°C° 0 mm 2 mps 723 mmHg 27%
    09:00 +40°C° 0 mm 2 mps 723 mmHg 23%
    10:00 +42°C° 0 mm 2 mps 723 mmHg 19%
    11:00 +45°C° 0 mm 2 mps 722 mmHg 15%
    12:00 +46°C° 0 mm 1 mps 721 mmHg 12%
    13:00 +48°C° 0 mm 1 mps 721 mmHg 9%
    14:00 +48°C° 0 mm 1 mps 720 mmHg 8%
    15:00 +48°C° 0 mm 2 mps 719 mmHg 8%
    16:00 +47°C° 0 mm 2 mps 719 mmHg 7%
    17:00 +46°C° 0 mm 2 mps 719 mmHg 8%
    18:00 +43°C° 0 mm 1 mps 719 mmHg 9%
    19:00 +41°C° 0 mm 1 mps 720 mmHg 9%
    20:00 +40°C° 0 mm 1 mps 720 mmHg 9%
    21:00 +39°C° 0 mm 1 mps 721 mmHg 8%
    22:00 +38°C° 0 mm 2 mps 721 mmHg 8%
    23:00 +37°C° 0 mm 2 mps 721 mmHg 8%

    26 April, Friday

    Time Temperature Precipitation Wind Pressure Humidity
    00:00 +35°C° 0 mm 1 mps 720 mmHg 8%
    01:00 +34°C° 0 mm 1 mps 720 mmHg 8%
    02:00 +33°C° 0 mm 1 mps 720 mmHg 10%
    03:00 +32°C° 0 mm 1 mps 720 mmHg 12%
    04:00 +31°C° 0 mm 1 mps 720 mmHg 14%
    05:00 +32°C° 0 mm 1 mps 721 mmHg 14%
    06:00 +32°C° 0 mm 1 mps 721 mmHg 15%
    07:00 +32°C° 0 mm 1 mps 722 mmHg 15%
    08:00 +35°C° 0 mm 1 mps 722 mmHg 11%
    09:00 +39°C° 0 mm 2 mps 722 mmHg 7%
    10:00 +42°C° 0 mm 2 mps 723 mmHg 3%
    11:00 +45°C° 0 mm 2 mps 722 mmHg 3%
    12:00 +46°C° 0 mm 2 mps 721 mmHg 3%
    13:00 +47°C° 0 mm 2 mps 720 mmHg 2%
    14:00 +47°C° 0 mm 2 mps 720 mmHg 2%
    15:00 +47°C° 0 mm 2 mps 719 mmHg 2%
    16:00 +46°C° 0 mm 2 mps 718 mmHg 3%
    17:00 +43°C° 0 mm 2 mps 719 mmHg 3%
    18:00 +41°C° 0 mm 1 mps 719 mmHg 4%
    19:00 +36°C° 0 mm 0 mps 719 mmHg 4%
    20:00 +37°C° 0 mm 1 mps 719 mmHg 4%
    21:00 +36°C° 0 mm 1 mps 720 mmHg 5%
    22:00 +36°C° 0 mm 1 mps 720 mmHg 5%
    23:00 +35°C° 0 mm 1 mps 720 mmHg 5%
    Show more